Hourly Weather Holuby

Today, 11 April, Sunday

Time Temperature Precipitation Wind Pressure Humidity
00:00 +5°C° 0 mm 3 mps 745 mmHg 67%
01:00 +5°C° 0 mm 3 mps 746 mmHg 67%
02:00 +4°C° 0 mm 3 mps 746 mmHg 67%
03:00 +4°C° 0 mm 3 mps 746 mmHg 67%
04:00 +4°C° 0 mm 3 mps 746 mmHg 67%
05:00 +4°C° 0 mm 3 mps 746 mmHg 66%
06:00 +5°C° 0 mm 3 mps 746 mmHg 63%
07:00 +6°C° 0 mm 4 mps 746 mmHg 60%
08:00 +7°C° 0 mm 4 mps 747 mmHg 57%
09:00 +9°C° 0 mm 5 mps 747 mmHg 52%
10:00 +10°C° 0 mm 5 mps 747 mmHg 47%
11:00 +13°C° 0 mm 6 mps 747 mmHg 42%
12:00 +14°C° 0 mm 6 mps 747 mmHg 40%
13:00 +14°C° 0 mm 6 mps 746 mmHg 38%
14:00 +15°C° 0 mm 6 mps 746 mmHg 36%
15:00 +15°C° 0 mm 6 mps 746 mmHg 38%
16:00 +14°C° 0 mm 5 mps 746 mmHg 40%
17:00 +14°C° 0 mm 5 mps 746 mmHg 41%
18:00 +13°C° 0 mm 5 mps 746 mmHg 46%
19:00 +10°C° 0 mm 5 mps 746 mmHg 50%
20:00 +8°C° 0 mm 4 mps 746 mmHg 55%
21:00 +8°C° 0 mm 4 mps 746 mmHg 56%
22:00 +7°C° 0 mm 4 mps 746 mmHg 56%
23:00 +6°C° 0 mm 4 mps 747 mmHg 57%

Tomorrow, 12 April, Monday

Time Temperature Precipitation Wind Pressure Humidity
00:00 +6°C° 0 mm 4 mps 746 mmHg 58%
01:00 +5°C° 0 mm 4 mps 746 mmHg 60%
02:00 +5°C° 0 mm 4 mps 746 mmHg 61%
03:00 +4°C° 0 mm 4 mps 746 mmHg 63%
04:00 +4°C° 0 mm 4 mps 746 mmHg 64%
05:00 +4°C° 0 mm 4 mps 746 mmHg 65%
06:00 +5°C° 0 mm 4 mps 746 mmHg 62%
07:00 +6°C° 0 mm 4 mps 745 mmHg 60%
08:00 +7°C° 0 mm 4 mps 745 mmHg 57%
09:00 +10°C° 0 mm 4 mps 745 mmHg 52%
10:00 +11°C° 0 mm 4 mps 745 mmHg 48%
11:00 +13°C° 0 mm 5 mps 745 mmHg 43%
12:00 +14°C° 0 mm 4 mps 745 mmHg 42%
13:00 +15°C° 0 mm 4 mps 744 mmHg 41%
14:00 +15°C° 0 mm 4 mps 744 mmHg 40%
15:00 +17°C° 0 mm 3 mps 744 mmHg 41%
16:00 +17°C° 0 mm 3 mps 743 mmHg 42%
17:00 +17°C° 0 mm 3 mps 743 mmHg 43%
18:00 +14°C° 0 mm 3 mps 743 mmHg 47%
19:00 +12°C° 0 mm 3 mps 743 mmHg 51%
20:00 +11°C° 0 mm 3 mps 743 mmHg 55%
21:00 +10°C° 0 mm 3 mps 743 mmHg 56%
22:00 +10°C° 0 mm 2 mps 743 mmHg 57%
23:00 +9°C° 0 mm 2 mps 743 mmHg 58%

Day after tomorrow, 13 April, Tuesday

Time Temperature Precipitation Wind Pressure Humidity
00:00 +9°C° 0 mm 2 mps 743 mmHg 59%
01:00 +9°C° 0 mm 2 mps 743 mmHg 60%
02:00 +8°C° 0 mm 2 mps 743 mmHg 61%
03:00 +8°C° 0 mm 2 mps 743 mmHg 62%
04:00 +9°C° 0 mm 1 mps 743 mmHg 63%
05:00 +8°C° 0 mm 1 mps 742 mmHg 64%
06:00 +10°C° 0 mm 1 mps 743 mmHg 62%
07:00 +11°C° 0 mm 1 mps 743 mmHg 59%
08:00 +12°C° 0 mm 2 mps 743 mmHg 56%
09:00 +14°C° 0 mm 2 mps 743 mmHg 51%
10:00 +15°C° 0 mm 2 mps 742 mmHg 47%
11:00 +17°C° 0 mm 2 mps 742 mmHg 42%
12:00 +18°C° 0 mm 2 mps 742 mmHg 41%
13:00 +18°C° 0 mm 2 mps 742 mmHg 40%
14:00 +19°C° 0 mm 2 mps 741 mmHg 39%
15:00 +19°C° 0 mm 2 mps 741 mmHg 40%
16:00 +19°C° 0 mm 2 mps 741 mmHg 42%
17:00 +18°C° 0 mm 3 mps 740 mmHg 43%
18:00 +17°C° 0 mm 3 mps 740 mmHg 49%
19:00 +14°C° 0 mm 3 mps 740 mmHg 55%
20:00 +13°C° 0 mm 2 mps 740 mmHg 61%
21:00 +12°C° 0 mm 2 mps 740 mmHg 69%
22:00 +10°C° 0 mm 2 mps 740 mmHg 77%
23:00 +9°C° 0 mm 2 mps 740 mmHg 84%

14 April, Wednesday

Time Temperature Precipitation Wind Pressure Humidity
00:00 +9°C° 0 mm 2 mps 739 mmHg 87%
01:00 +9°C° 0 mm 2 mps 739 mmHg 89%
02:00 +8°C° 0 mm 2 mps 739 mmHg 91%
03:00 +8°C° 0.1 mm 2 mps 739 mmHg 92%
04:00 +8°C° 0.1 mm 2 mps 739 mmHg 93%
05:00 +8°C° 0.1 mm 3 mps 738 mmHg 94%
06:00 +8°C° 0.5 mm 3 mps 738 mmHg 94%
07:00 +8°C° 0.5 mm 3 mps 738 mmHg 93%
08:00 +8°C° 0.5 mm 3 mps 738 mmHg 93%
09:00 +6°C° 0.9 mm 4 mps 738 mmHg 93%
10:00 +6°C° 0.9 mm 4 mps 738 mmHg 93%
11:00 +6°C° 0.9 mm 4 mps 738 mmHg 93%
12:00 +6°C° 0.3 mm 4 mps 738 mmHg 93%
13:00 +7°C° 0.3 mm 3 mps 738 mmHg 93%
14:00 +7°C° 0.3 mm 3 mps 738 mmHg 93%
15:00 +7°C° 0.1 mm 3 mps 738 mmHg 92%
16:00 +7°C° 0.1 mm 3 mps 738 mmHg 92%
17:00 +7°C° 0.1 mm 3 mps 738 mmHg 92%
18:00 +5°C° 0.1 mm 3 mps 738 mmHg 92%
19:00 +5°C° 0.1 mm 3 mps 738 mmHg 93%
20:00 +6°C° 0.1 mm 2 mps 739 mmHg 94%
21:00 +6°C° 0.1 mm 2 mps 739 mmHg 95%
22:00 +6°C° 0.1 mm 2 mps 739 mmHg 95%
23:00 +5°C° 0.1 mm 2 mps 738 mmHg 96%

15 April, Thursday

Time Temperature Precipitation Wind Pressure Humidity
00:00 +5°C° 0.3 mm 2 mps 738 mmHg 96%
01:00 +5°C° 0.3 mm 2 mps 738 mmHg 96%
02:00 +5°C° 0.3 mm 2 mps 738 mmHg 96%
03:00 +6°C° 0.2 mm 1 mps 738 mmHg 96%
04:00 +6°C° 0.2 mm 1 mps 738 mmHg 96%
05:00 +6°C° 0.2 mm 1 mps 739 mmHg 96%
06:00 +6°C° 0.1 mm 1 mps 739 mmHg 96%
07:00 +6°C° 0.1 mm 1 mps 739 mmHg 95%
08:00 +7°C° 0.1 mm 1 mps 739 mmHg 94%
09:00 +8°C° 0 mm 1 mps 739 mmHg 90%
10:00 +9°C° 0 mm 1 mps 739 mmHg 86%
11:00 +10°C° 0 mm 1 mps 740 mmHg 83%
12:00 +10°C° 0.3 mm 1 mps 740 mmHg 83%
13:00 +10°C° 0.3 mm 1 mps 740 mmHg 83%
14:00 +9°C° 0.3 mm 2 mps 740 mmHg 83%
15:00 +9°C° 0.2 mm 2 mps 740 mmHg 85%
16:00 +9°C° 0.2 mm 2 mps 739 mmHg 87%
17:00 +8°C° 0.2 mm 3 mps 739 mmHg 89%
18:00 +8°C° 0.3 mm 3 mps 740 mmHg 90%
19:00 +8°C° 0.3 mm 3 mps 740 mmHg 92%
20:00 +7°C° 0.3 mm 3 mps 740 mmHg 94%
21:00 +7°C° 0.1 mm 3 mps 740 mmHg 94%
22:00 +6°C° 0.1 mm 4 mps 740 mmHg 94%
23:00 +5°C° 0.1 mm 4 mps 740 mmHg 94%

16 April, Friday

Time Temperature Precipitation Wind Pressure Humidity
00:00 +5°C° 0 mm 4 mps 740 mmHg 95%
01:00 +5°C° 0 mm 4 mps 740 mmHg 95%
02:00 +5°C° 0 mm 4 mps 740 mmHg 95%
03:00 +5°C° 0 mm 4 mps 740 mmHg 96%
04:00 +5°C° 0 mm 4 mps 740 mmHg 96%
05:00 +5°C° 0 mm 4 mps 740 mmHg 96%
06:00 +5°C° 0 mm 4 mps 740 mmHg 95%
07:00 +5°C° 0 mm 4 mps 741 mmHg 94%
08:00 +5°C° 0 mm 4 mps 741 mmHg 93%
09:00 +6°C° 0 mm 4 mps 741 mmHg 91%
10:00 +6°C° 0 mm 4 mps 742 mmHg 89%
11:00 +7°C° 0 mm 4 mps 742 mmHg 86%
12:00 +7°C° 0 mm 5 mps 742 mmHg 86%
13:00 +8°C° 0 mm 5 mps 742 mmHg 85%
14:00 +8°C° 0 mm 5 mps 742 mmHg 84%
15:00 +7°C° 0 mm 5 mps 743 mmHg 85%
16:00 +7°C° 0 mm 5 mps 743 mmHg 86%
17:00 +7°C° 0 mm 5 mps 743 mmHg 87%
18:00 +6°C° 0 mm 5 mps 744 mmHg 88%
19:00 +6°C° 0 mm 5 mps 744 mmHg 89%
20:00 +5°C° 0 mm 5 mps 745 mmHg 90%
21:00 +5°C° 0.1 mm 4 mps 745 mmHg 90%
22:00 +5°C° 0.1 mm 4 mps 746 mmHg 91%
23:00 +5°C° 0.1 mm 4 mps 746 mmHg 91%
Show more